Temp
56 55 54 55 56 56 55 55 55 55 55 56 57 59 60 60 62 64 63 63 63 63
59 59 58 57 58 58 56 57 57 58 58 59 59 59 60 62 63 63 64 64 64 63
62 60 59 59 58 58 56 55 55 53 54 53 54 55 58 56 57 57 56 58 60 62
53 53 53 51 52 54 54 54 53 52 51 50 51 51 52 53 55 56 57 58 60 60
56 52 52 55 54 54 54 53 52 51 50 50 50 52 56 58 61 61 60 60 59 58
56 58 58 58 59 59 60 60 61 61 60 61 61 62 62 62 62 62 61 60 57 57
59 58 60 61 62 62 63 62 61 61 61 61 61 61 60 60 60 60 60 60 59 59
60 61 61 60 61 61 61 61 61 60 60 60 59 57 56 58 58 58 58 59 59 59
59 60 59 60 59 59 59 59 59 58 58 57 58 52 53 53 54 56 56 55 56 56
60 59 59 59 58 57 57 58 57 57 57 56 55 51 51 51 53 53 54 53 53 53
59 58 58 58 57 57 57 56 55 55 54 54 52 49 49 49 51 52 53 53 52 51
59 57 57 55 55 55 55 55 54 54 53 52 52 50 49 48 49 50 50 52 52 51
58 56 54 54 53 53 54 52 53 52 53 52 51 51 49 48 48 47 48 48 49 48
56 55 54 53 53 52 52 51 51 51 51 51 51 50 48 47 46 46 45 45 45 46
MSLP
1015.23 1016.36 1017.37 1017.78 1017.97 1018.38 1018.36 1018.43 1018.85 1019.28 1020.15 1020.55 1021.06 1021.75 1021.95 1021.95 1022.01 1022.19 1022.23 1022.11 1022.10 1022.03
1016.15 1016.48 1017.28 1017.91 1018.03 1018.44 1018.45 1018.81 1019.17 1019.56 1020.12 1020.64 1021.01 1021.49 1021.57 1021.83 1021.93 1022.03 1022.09 1022.24 1022.26 1022.28
1016.34 1016.85 1017.51 1017.98 1018.27 1018.58 1018.71 1018.91 1019.41 1019.80 1020.48 1021.12 1021.48 1021.70 1021.83 1022.31 1022.53 1022.24 1022.08 1022.26 1022.18 1022.46
1017.49 1017.94 1018.25 1018.68 1018.90 1018.91 1019.17 1019.43 1019.84 1020.16 1020.80 1021.25 1021.87 1022.45 1022.59 1022.40 1022.17 1022.12 1022.09 1022.30 1022.43 1022.65
1018.17 1018.51 1018.83 1019.16 1019.33 1019.48 1019.71 1019.91 1020.26 1020.69 1021.03 1021.45 1021.86 1022.25 1022.31 1022.00 1021.95 1022.15 1022.22 1022.47 1022.65 1022.84
1018.62 1018.78 1019.23 1019.26 1019.61 1019.72 1019.95 1020.13 1020.27 1020.52 1021.01 1021.36 1021.56 1021.85 1021.87 1021.85 1022.10 1022.18 1022.34 1022.49 1022.79 1022.96
1019.23 1019.41 1019.71 1019.85 1019.94 1020.16 1020.39 1020.65 1020.93 1021.17 1021.36 1021.63 1021.79 1022.15 1022.28 1022.47 1022.46 1022.47 1022.36 1022.53 1022.64 1022.62
1019.80 1020.17 1020.25 1020.53 1020.64 1020.73 1020.99 1021.12 1021.58 1021.70 1021.92 1021.93 1022.22 1022.87 1023.00 1022.78 1022.54 1022.56 1022.54 1022.40 1022.46 1022.45
1020.24 1020.58 1020.71 1020.90 1021.26 1021.31 1021.58 1021.72 1022.08 1022.40 1022.43 1022.53 1022.89 1023.65 1023.65 1023.59 1023.18 1022.95 1022.65 1022.44 1022.55 1022.54
1020.62 1020.93 1021.12 1021.40 1021.82 1021.92 1021.99 1022.24 1022.45 1022.69 1022.85 1023.02 1023.32 1023.92 1023.84 1023.89 1023.53 1023.17 1022.96 1022.82 1022.73 1022.67
1020.92 1021.23 1021.48 1021.70 1021.91 1022.02 1022.17 1022.46 1022.82 1023.02 1023.15 1023.26 1023.52 1023.90 1024.19 1024.04 1023.71 1023.22 1023.04 1022.80 1022.75 1022.74
1021.20 1021.54 1021.78 1022.06 1022.28 1022.49 1022.60 1022.78 1023.09 1023.14 1023.25 1023.28 1023.46 1023.76 1024.12 1024.18 1023.71 1023.28 1022.97 1022.69 1022.51 1022.59
1021.55 1021.86 1022.14 1022.34 1022.67 1022.92 1022.91 1023.09 1023.17 1023.11 1023.18 1023.32 1023.38 1023.51 1023.88 1024.07 1023.81 1023.32 1023.08 1023.07 1022.86 1022.88
1021.90 1022.25 1022.59 1022.82 1022.96 1022.96 1023.06 1023.15 1023.12 1023.08 1023.28 1023.42 1023.41 1023.68 1024.04 1024.25 1024.01 1023.51 1023.20 1023.07 1022.98 1022.96
Wind_Speed
10 6 3 4 4 3 2 3 6 8 7 7 5 4 5 3 3 5 4 5 4 1
8 8 6 5 5 3 5 4 7 7 8 6 4 3 4 4 5 5 5 5 4 3
9 10 8 5 4 4 6 6 8 7 7 5 4 3 3 1 3 3 1 2 2 2
9 10 9 8 7 6 6 6 8 8 7 6 3 0 2 4 3 3 2 1 3 3
12 10 10 8 7 6 6 7 7 6 5 4 5 7 9 5 3 5 3 4 3 3
10 11 11 10 9 8 9 9 9 8 7 6 5 3 2 1 2 3 3 3 3 5
11 10 8 10 11 10 10 10 9 8 8 6 5 4 3 2 3 4 4 5 6 7
11 11 11 10 10 10 9 9 8 7 6 5 4 6 7 5 4 5 7 7 8 8
10 10 9 9 8 8 7 7 6 5 5 4 4 7 7 7 7 8 9 8 8 9
9 8 8 7 7 6 6 5 5 4 4 4 6 7 7 7 7 8 7 8 9 9
7 7 6 6 6 5 5 4 4 5 5 5 6 7 7 9 9 8 9 9 9 9
6 5 6 6 5 5 5 5 5 5 5 5 6 6 8 10 9 8 9 9 9 10
5 5 5 5 5 4 4 4 4 5 6 5 7 8 11 11 8 9 8 10 10 13
5 5 4 3 4 4 5 5 5 6 7 7 7 7 10 12 8 8 8 9 7 7
Wind_Direction
107 124 114 157 172 175 149 115 149 141 135 137 134 213 236 252 264 268 283 287 303 318
126 140 144 171 175 157 110 118 146 151 151 151 163 199 212 237 231 234 265 265 256 264
83 64 92 90 96 107 119 121 133 113 99 90 80 78 129 213 290 264 173 281 247 248
63 66 66 66 51 65 72 116 115 111 110 105 97 55 246 224 198 243 198 53 260 256
80 71 72 81 84 83 100 103 101 104 106 133 178 197 207 201 183 228 218 213 240 273
79 86 90 92 92 96 96 101 113 125 131 139 139 141 125 157 218 252 279 338 296 288
91 90 90 88 90 91 92 93 93 92 95 97 90 73 59 346 301 268 250 247 255 287
93 91 89 85 80 79 79 83 87 89 84 81 79 37 4 339 308 296 293 299 295 278
90 87 83 81 82 81 80 77 72 72 64 60 69 41 16 348 321 304 298 310 309 314
103 99 95 97 101 98 82 77 73 71 55 27 78 48 12 357 313 318 295 301 302 301
99 98 95 92 86 73 75 55 39 27 10 359 84 64 7 345 304 312 306 302 302 300
95 90 85 74 66 48 31 19 6 4 1 1 351 48 358 338 321 311 309 305 310 333
76 77 73 61 51 34 15 7 351 353 346 5 335 354 353 348 322 317 327 326 314 316
99 88 68 55 32 13 12 355 346 353 345 335 340 338 350 337 325 324 322 316 323 305